Starlink 32233

operational
NORAD ID: 60434 Int'l Des: 2024-144 Owner: SPXS Country: US Constellation: starlink
LEOCIRCULAR

About Starlink 32233

Description loading...

Live Position

Loading 3D Globe...

Upcoming Passes

Altitude History

Altitude vs Time

uPlot chart will show altitude changes over time

Two-Line Element Set

1 60434U 24144K 25338.28887423 .00001540 00000-0 64091-4 0 9999
2 60434 53.1609 300.2048 0001153 109.4279 250.6847 15.30214814 74701
Epoch: Dec 4, 2025 • Age: 19 hours

Current Status

Altitude 477.6 km
Velocity 7.63 km/s
Sub-Earth Point -6.99°S, 168.37°W
Launch Date Aug 12, 2024
Age 1.3 years
Type internet

Technical Details

Classification Payload
Mass 730.00 kg
Dry Mass 700.00 kg
Total Mass 730.00 kg
Length 0.30 m
Diameter 4.10 m
Span 29.00 m
Shape Box + pan
Manufacturer SPXS
Bus Type Starlink V2M
Phase Status In Orbit
Owner/State SPXS/US

Large Constellations

Loading constellations...